Wind_Speed
31 31 31 31 31 31 31 32 32 32 32 31 31 30 30 31 31 32 32 31 31 31 31 32 32 32 32 32 33 32 33 33 34 34 34 35 35 36 36 37 37 37 37 37 37 37 36 35 34 33 32 31 30 31 32 31 29 28 27 27 27 25 25 27 28 27 24 23 24 25 25 22 20 20 20 19 18 18 19 20 21 22 23 24 26
31 31 31 31 31 31 31 31 31 31 31 31 31 30 30 30 30 31 31 32 32 32 32 32 32 32 32 33 33 33 32 32 32 33 33 34 34 35 35 36 36 36 36 37 37 38 38 37 37 36 35 34 32 32 33 34 32 31 30 31 30 28 27 29 30 31 30 28 28 29 29 27 24 21 22 22 21 20 21 22 23 25 26 27 28
31 31 32 32 32 32 31 31 31 31 31 31 32 31 31 31 31 31 31 31 32 32 32 32 32 32 32 32 33 33 33 33 33 32 33 33 34 34 34 35 35 35 35 35 36 37 38 39 39 39 38 38 37 35 34 34 34 34 34 34 35 34 32 31 32 33 33 33 32 32 32 32 30 25 24 25 25 25 25 25 26 27 28 30 31
31 32 32 33 33 33 33 32 32 32 32 32 32 32 32 32 32 32 32 32 32 32 33 33 33 33 32 32 32 32 33 33 33 33 33 33 33 34 34 34 35 35 34 34 35 36 37 38 39 40 40 40 39 39 37 36 36 36 35 35 37 38 37 36 36 36 36 36 35 33 33 35 35 32 29 29 29 29 28 28 28 29 30 31 33
31 32 32 33 34 34 34 34 34 34 33 33 34 33 34 34 34 33 33 33 33 33 33 33 33 33 33 33 33 32 32 32 32 33 32 32 32 33 33 34 34 34 34 34 34 34 35 36 37 39 40 40 40 40 40 39 39 39 38 38 38 39 40 40 40 40 40 39 38 37 36 36 37 38 36 34 34 34 32 31 31 30 30 33 36
31 32 33 33 34 34 35 35 35 36 35 35 35 35 35 35 35 35 35 35 34 34 34 34 34 34 34 34 33 33 33 33 32 32 32 32 32 32 32 32 32 33 33 33 33 33 33 34 35 36 37 38 39 39 40 40 40 41 41 41 41 41 42 42 42 43 42 41 41 41 40 39 37 38 40 40 37 36 38 38 37 34 33 35 39
34 34 34 35 35 35 36 36 36 37 37 37 37 36 37 37 37 37 37 37 36 36 35 35 35 35 35 35 34 34 34 34 33 33 33 33 32 32 32 31 31 31 31 31 31 32 32 32 32 33 34 36 37 38 38 39 40 41 42 43 43 44 44 45 45 44 44 43 42 41 40 39 38 37 38 40 40 40 43 44 40 36 34 36 38
36 36 37 37 37 37 38 38 38 38 38 38 38 38 38 38 38 38 38 38 38 38 37 37 36 36 36 36 36 35 35 35 35 35 35 34 34 33 33 33 32 32 31 30 30 30 30 30 30 30 31 32 34 35 36 37 38 39 40 42 43 43 44 44 44 43 44 44 43 41 40 39 39 38 38 39 41 41 41 39 35 32 32 33 35
37 38 38 39 39 40 40 40 41 41 41 41 41 41 40 40 40 40 40 40 40 40 40 39 38 38 38 37 37 37 36 36 36 36 37 37 37 36 36 36 35 34 33 32 31 31 30 30 30 30 30 30 30 32 34 35 36 36 37 38 39 40 42 43 43 43 44 44 43 43 42 41 41 41 40 40 40 40 40 40 39 38 37 36 38
39 39 39 40 40 41 41 42 43 43 44 44 44 44 44 43 43 42 42 42 42 42 42 41 41 40 40 39 39 38 38 37 37 38 38 39 39 39 39 39 38 38 37 35 34 33 32 31 31 31 30 30 29 29 30 32 33 35 36 36 37 38 40 41 43 45 45 45 44 43 43 42 42 41 41 41 42 43 44 45 45 43 41 41 42
42 42 42 42 42 42 42 42 43 44 45 45 46 47 47 47 47 47 46 45 45 44 44 44 44 43 43 43 42 41 40 39 39 39 40 40 41 41 41 41 41 40 40 39 37 36 34 34 32 32 31 31 30 29 29 29 30 31 33 34 34 35 37 38 40 40 41 41 40 40 40 40 40 39 39 40 41 42 42 42 42 42 41 42 43
42 42 43 43 44 44 44 44 44 44 45 46 46 47 48 48 49 50 50 49 49 48 48 47 46 46 46 46 45 44 43 42 42 42 42 42 42 43 43 43 43 42 42 41 40 39 38 36 35 34 33 32 32 31 30 29 29 29 30 31 32 33 34 35 35 35 36 37 38 38 39 39 39 39 38 38 37 37 38 39 40 39 38 39 40
41 42 42 43 43 44 44 45 45 45 45 46 47 47 48 48 49 49 50 51 51 51 51 51 50 49 49 48 48 47 47 46 46 45 45 45 45 45 46 45 45 44 44 43 42 41 40 39 38 36 35 34 34 33 32 31 30 30 30 30 30 31 32 33 34 34 35 37 38 39 41 43 44 42 40 40 39 38 37 38 38 37 36 35 35
39 40 40 40 41 42 42 43 44 44 45 46 47 47 48 49 49 49 50 50 51 51 52 52 53 53 52 52 52 51 50 49 49 49 49 49 48 49 49 48 48 47 47 46 45 43 42 41 40 39 37 36 35 35 35 34 33 32 31 31 30 29 30 31 34 35 36 36 36 36 37 39 42 43 41 39 39 38 38 38 38 37 36 35 35
37 37 37 38 39 39 40 41 42 43 43 44 46 47 48 49 50 50 51 51 51 51 51 52 52 53 53 54 54 53 52 52 52 52 52 52 52 52 52 51 51 50 49 49 48 46 44 43 42 41 40 38 37 37 37 37 36 34 33 33 32 30 29 30 31 33 35 38 39 39 38 38 39 42 42 41 40 39 39 40 40 39 39 39 38
35 35 36 36 36 37 38 39 40 41 42 43 44 45 46 47 49 50 51 52 53 53 53 53 53 53 53 53 54 54 53 53 53 53 54 54 55 55 55 55 54 53 52 51 51 50 48 46 44 43 42 41 40 39 38 38 37 36 35 34 34 33 31 30 30 30 32 34 38 41 43 44 44 45 47 47 46 44 44 45 45 44 44 43 41
35 36 36 36 36 37 38 38 39 40 40 42 43 44 45 46 47 48 50 52 53 54 55 56 56 56 55 55 55 55 53 52 53 53 54 55 56 57 57 57 57 56 55 53 52 52 51 49 47 45 44 43 42 41 40 40 39 38 37 36 35 34 33 32 31 31 31 32 34 35 38 40 41 42 42 42 42 41 42 44 44 43 43 41 39
37 37 38 38 38 39 39 39 39 39 40 41 42 42 43 44 45 47 49 51 52 53 54 56 57 57 58 58 58 58 56 54 53 54 54 55 56 57 58 59 59 58 58 56 55 54 53 52 50 48 46 45 44 43 42 41 41 39 38 37 36 35 35 34 33 32 32 33 34 34 35 35 36 36 36 36 37 37 37 38 38 37 37 36 36
39 39 39 40 40 40 40 40 40 40 40 41 41 42 42 43 44 46 47 49 51 52 53 55 57 58 58 60 60 61 61 59 57 56 56 56 57 58 59 59 60 59 59 59 58 56 55 54 53 52 49 47 46 45 44 43 43 42 40 39 38 37 36 35 34 33 33 33 34 34 34 35 35 36 37 37 37 37 37 37 37 37 37 37 37
39 40 40 40 40 40 41 41 41 41 41 41 41 42 42 43 44 45 46 48 50 51 52 54 56 58 58 59 61 62 63 63 62 61 60 60 59 60 60 60 60 60 61 61 60 59 58 56 55 54 52 50 48 47 46 45 45 44 43 42 40 39 38 37 36 35 35 35 35 35 36 36 36 37 39 40 40 40 40 40 40 40 40 39 39
38 39 39 39 39 39 40 40 41 41 42 42 42 42 43 44 45 46 47 48 49 50 51 53 55 56 57 58 60 62 63 65 65 64 63 63 63 64 64 64 63 63 63 62 62 61 60 58 57 56 54 53 51 48 47 47 47 46 45 43 42 41 41 40 40 39 38 38 38 37 38 38 38 38 39 40 42 43 44 44 44 43 42 40 39
36 36 36 36 37 37 38 39 40 41 41 42 43 44 45 46 47 47 48 48 49 50 50 51 53 54 55 55 57 59 61 63 65 66 65 65 65 66 68 68 68 68 67 66 65 64 62 61 60 59 57 56 55 52 50 50 50 49 47 46 44 43 43 43 43 42 42 41 40 40 39 39 39 39 39 39 40 41 42 43 43 42 41 40 40
33 33 34 34 35 36 37 38 39 40 42 43 45 46 47 48 48 48 48 49 49 49 49 50 51 52 53 53 54 55 56 58 60 63 63 63 64 65 67 69 70 71 72 72 70 68 67 65 64 63 62 61 59 58 56 55 55 53 51 49 48 46 45 45 45 45 45 44 43 42 41 40 40 40 40 39 39 39 39 39 40 40 41 41 41
31 32 33 34 35 36 37 38 40 41 43 44 46 47 47 48 47 47 47 47 47 47 47 48 49 50 51 51 52 52 53 54 55 57 58 59 60 62 63 65 66 68 71 74 75 74 73 71 70 69 68 67 65 64 62 61 60 60 58 56 54 51 49 48 47 47 47 47 46 44 43 42 42 41 41 40 39 39 39 39 39 40 41 41 40
31 32 33 34 35 36 36 37 38 40 41 42 43 44 45 45 45 45 45 45 45 45 45 45 46 46 47 48 48 48 49 50 51 52 53 54 55 56 57 58 60 61 65 69 74 75 76 75 75 73 73 72 71 70 68 66 65 65 65 63 61 59 57 55 53 51 50 49 48 47 46 45 43 43 42 41 41 41 41 41 40 39 39 38 38
31 31 31 32 32 33 33 34 36 37 39 40 41 42 43 44 44 44 45 45 45 45 44 44 44 44 44 44 45 45 45 46 47 47 48 49 50 51 51 53 54 55 57 60 65 68 71 73 74 74 73 73 72 72 72 70 68 67 68 68 66 65 63 61 60 58 56 53 52 50 49 48 46 45 44 43 43 42 42 42 41 39 38 38 38
28 29 29 30 30 31 32 33 35 36 38 39 41 41 42 43 43 44 44 45 45 44 44 44 43 43 42 42 42 42 42 41 42 42 43 44 45 46 47 49 49 50 51 53 56 59 62 65 67 68 69 69 68 68 70 70 68 67 67 68 66 64 63 62 62 62 61 59 57 54 52 50 47 46 46 45 43 42 41 40 39 39 39 39 38
27 28 28 29 30 31 32 34 35 36 37 39 40 41 41 42 42 42 42 43 44 43 44 43 43 42 42 42 41 41 39 38 38 39 39 40 40 41 43 44 45 46 47 48 50 52 54 56 58 60 61 62 62 62 64 67 66 65 65 64 63 62 61 61 61 61 62 62 60 56 53 51 48 47 46 45 43 41 40 39 39 38 39 38 36
27 28 29 29 30 32 33 34 35 36 37 38 39 39 40 40 41 40 40 40 41 41 42 42 41 41 41 40 40 40 38 36 36 37 37 37 37 38 39 40 41 42 43 43 45 47 49 51 53 54 54 55 55 55 57 60 61 61 60 60 59 59 59 58 58 58 58 57 55 53 51 49 47 46 45 44 42 41 40 39 38 38 37 35 34
27 28 29 30 31 32 33 34 36 36 37 37 37 37 37 37 38 38 38 37 37 38 38 38 38 38 39 38 38 39 38 35 35 36 36 36 36 37 38 38 38 40 40 40 41 43 46 47 48 49 49 49 49 50 51 53 55 55 55 55 56 57 56 55 54 53 52 51 50 49 48 47 46 45 44 42 41 40 39 38 37 36 34 33 32
27 28 29 30 31 32 33 34 36 36 36 36 35 34 34 33 33 34 35 35 35 34 34 35 34 34 35 35 36 37 36 35 35 35 35 35 36 37 37 38 38 39 39 39 40 41 43 43 44 44 44 44 45 45 45 47 49 49 48 49 51 51 51 50 49 48 48 48 48 48 47 46 44 43 42 40 39 38 37 36 35 34 32 31 30
28 29 29 30 31 32 33 35 36 36 35 35 34 33 33 32 31 29 28 31 33 33 32 32 31 31 31 32 33 34 33 33 34 34 34 34 35 35 36 37 38 38 39 39 39 39 40 40 40 39 39 40 39 37 37 41 44 43 41 41 42 43 44 44 46 46 46 46 46 47 47 44 41 40 39 38 37 36 34 33 32 31 30 30 29
30 30 30 30 31 32 33 34 35 35 35 35 34 33 32 32 31 29 26 25 28 31 31 31 30 29 29 29 29 30 30 31 32 32 32 32 33 33 34 35 36 36 36 37 37 37 37 38 36 35 35 35 33 31 33 38 40 38 35 36 37 38 40 42 44 45 45 45 46 46 44 41 38 37 37 36 35 33 32 31 31 30 29 29 29
30 30 30 30 30 31 32 33 34 34 35 34 34 33 32 32 32 32 29 26 24 25 28 29 30 29 28 27 27 27 28 29 31 32 32 32 33 32 32 32 33 33 33 34 34 34 34 33 30 29 31 33 32 32 35 37 37 34 34 36 37 37 39 41 42 43 43 44 45 44 41 37 35 35 34 34 33 32 32 31 30 30 29 29 28
29 29 30 30 30 30 31 32 33 34 34 34 33 33 33 33 32 32 32 30 27 24 22 23 26 28 28 27 26 25 25 26 28 29 31 31 31 29 27 27 28 28 29 29 29 29 29 26 24 25 29 32 33 33 34 35 35 34 35 37 37 37 37 38 38 39 41 43 43 40 37 35 33 33 33 33 32 32 31 31 30 29 28 27 27
27 28 28 28 28 29 30 30 31 32 33 33 33 33 32 33 32 31 30 29 28 26 21 19 20 23 26 27 26 24 23 23 23 25 27 28 27 24 22 21 22 22 23 23 24 24 24 24 25 27 29 32 32 31 30 31 33 34 34 35 34 33 33 33 33 36 39 41 39 36 34 33 33 33 33 33 32 32 31 30 29 28 27 26 26
26 26 27 27 27 27 28 29 29 30 31 32 32 32 32 32 32 31 29 26 25 24 22 18 16 18 21 23 23 22 20 20 21 22 23 24 24 21 17 16 16 17 17 19 20 23 25 27 28 29 29 30 31 29 27 28 31 33 32 31 30 30 30 30 31 35 38 37 35 34 33 33 34 33 33 32 31 30 29 28 27 27 26 25 24
25 25 26 26 26 26 27 27 27 28 29 30 31 31 31 31 31 30 27 24 22 21 19 17 16 16 17 18 20 20 19 19 19 19 19 19 18 15 12 12 13 13 14 17 21 24 27 29 30 29 27 27 27 26 26 27 29 32 33 31 30 30 30 30 32 35 36 34 33 33 33 33 33 32 32 31 30 29 28 27 26 25 24 23 22
24 25 25 26 26 26 26 26 26 26 27 28 29 29 30 30 30 28 25 22 20 19 17 16 16 16 16 16 17 19 20 19 18 16 15 14 13 11 9 10 13 15 17 20 22 23 25 28 29 29 28 27 27 26 25 25 27 30 32 32 31 30 31 32 34 35 33 32 32 32 32 32 31 30 30 29 28 28 27 26 24 23 22 21 21
24 25 25 25 25 26 26 26 26 25 26 26 27 27 28 28 28 27 23 20 19 18 17 16 16 16 17 16 16 17 18 18 17 14 12 11 12 12 12 14 18 21 23 24 24 24 25 27 28 28 29 29 28 27 26 25 26 28 31 31 31 31 33 35 34 33 32 32 31 31 30 30 29 29 29 28 27 26 25 24 23 22 21 20 19
25 25 25 25 25 25 25 25 25 25 25 25 25 25 26 26 26 25 22 20 19 18 17 17 16 15 15 16 16 16 16 16 16 13 11 10 11 13 14 16 18 21 24 25 26 27 27 28 28 28 28 28 28 27 26 25 25 26 29 31 31 32 34 34 32 31 31 30 30 29 29 29 28 28 27 26 25 24 23 22 21 20 19 18 17
25 25 24 25 24 24 24 24 25 24 24 24 24 24 24 24 25 24 22 19 18 18 17 17 16 15 14 14 14 14 14 14 15 14 12 10 10 12 13 14 16 18 21 24 26 27 27 27 27 27 27 27 27 26 25 23 23 24 26 29 31 32 32 31 30 30 30 29 29 29 29 28 27 26 25 25 24 23 22 21 20 19 18 18 17
26 25 24 24 24 24 24 23 23 23 23 23 23 23 22 22 23 22 21 19 18 17 17 16 15 14 13 13 12 12 12 12 13 13 13 12 12 13 14 15 16 16 17 19 21 22 23 23 23 24 24 24 24 24 23 23 24 25 28 30 31 31 30 29 30 30 30 29 28 28 26 26 26 25 24 24 23 22 21 20 20 19 18 17 16
26 25 25 24 24 24 24 24 23 22 22 22 22 22 21 21 21 21 20 19 17 17 16 15 14 13 13 12 12 11 11 11 11 12 12 13 13 13 14 14 12 11 10 10 12 14 16 17 19 20 21 21 21 22 23 25 27 29 30 30 29 29 30 30 29 29 28 27 26 25 25 25 25 24 23 23 22 21 21 20 19 18 17 16 15
26 25 25 25 24 24 24 24 23 22 21 21 21 21 20 20 19 20 19 18 16 16 15 14 13 12 11 11 11 10 10 9 9 9 10 11 10 11 10 8 6 4 3 4 6 8 11 13 16 18 19 20 21 22 24 26 27 28 29 28 28 28 28 28 27 27 26 26 26 25 25 25 24 23 22 22 21 21 20 19 18 17 15 14 13
26 26 25 25 24 24 24 24 23 23 22 21 20 20 19 19 18 19 19 18 16 14 14 13 12 11 10 9 9 9 8 7 7 6 7 7 7 7 5 3 2 1 2 3 5 6 8 11 15 17 19 20 22 23 25 26 26 26 26 26 26 26 26 26 26 26 25 25 25 25 25 24 23 22 21 21 20 19 18 17 16 15 14 13 13
25 25 25 25 24 24 24 24 23 23 21 21 20 19 19 18 18 17 18 17 16 14 13 12 11 10 8 8 7 7 7 6 5 5 5 5 4 4 2 2 1 1 2 4 6 7 8 10 13 15 16 17 18 20 21 22 22 23 23 23 24 24 25 25 25 25 25 25 25 24 24 23 22 21 20 20 19 18 16 15 14 13 13 12 13
24 24 24 24 24 23 23 23 23 23 22 21 20 19 18 18 17 16 16 16 16 14 12 11 10 9 8 7 6 6 5 4 4 3 4 3 3 2 1 1 1 1 2 4 5 7 8 10 11 13 14 15 16 17 17 18 19 20 20 21 22 22 23 23 23 24 24 24 23 23 22 21 21 20 19 18 17 16 15 14 13 12 12 13 13
24 24 24 24 24 23 23 22 22 22 22 21 20 19 19 18 17 16 15 15 15 14 12 11 10 9 7 6 5 5 5 4 3 3 3 2 2 2 2 2 2 2 3 4 5 7 8 10 11 12 13 14 15 15 16 17 18 18 19 20 20 21 21 22 23 23 23 22 21 21 20 20 19 19 18 17 16 15 14 13 13 13 13 14 15
23 23 23 24 23 23 23 22 22 22 22 21 20 20 19 18 17 16 15 14 14 14 13 11 10 9 8 6 5 5 4 3 3 2 2 2 2 2 3 3 3 4 4 5 6 7 9 10 11 12 13 14 14 15 15 16 17 18 18 19 20 21 21 22 22 22 21 20 20 20 19 19 18 18 17 16 15 14 13 13 13 14 14 15 17
23 23 23 23 23 23 23 23 22 22 22 22 21 20 19 19 18 17 16 14 14 13 13 12 10 9 8 7 5 5 4 4 3 3 3 3 3 3 4 4 5 5 6 6 7 8 9 10 11 12 13 14 14 15 15 16 17 18 18 19 20 21 21 21 20 20 19 19 19 19 18 18 17 17 16 15 14 14 14 14 14 15 16 17 18
Wind_Direction
257 258 259 259 258 258 258 258 258 258 258 257 256 255 253 252 252 251 252 252 253 253 253 253 254 255 257 258 258 258 258 258 258 259 259 259 258 257 257 257 258 258 258 258 258 259 260 260 261 262 262 262 263 266 270 270 266 263 261 259 260 264 264 266 270 270 267 266 264 260 257 259 264 264 259 256 255 255 256 257 260 262 265 268 269
255 256 257 257 257 257 257 256 256 256 256 256 256 255 254 252 251 250 250 250 251 251 252 253 253 253 254 256 257 258 258 257 257 257 258 259 259 258 257 257 257 257 257 257 256 256 257 256 257 257 258 258 256 256 260 265 267 265 263 261 260 260 259 261 265 267 267 267 266 265 261 258 261 263 261 260 258 255 256 257 259 261 262 265 268
253 254 255 255 256 256 256 255 255 255 255 255 255 255 254 253 252 251 250 249 249 249 250 251 251 252 252 253 254 256 257 258 257 257 257 257 258 259 258 257 257 257 256 255 255 255 255 255 254 254 254 255 254 253 251 253 257 260 261 262 263 262 260 259 260 262 264 264 264 265 264 261 260 258 259 261 259 256 257 257 257 259 260 263 266
253 253 253 254 254 255 255 255 254 254 254 254 254 254 254 254 253 252 251 251 250 249 249 249 249 250 251 251 252 253 254 256 257 257 257 256 257 257 258 258 257 257 257 256 255 255 255 254 254 254 254 253 253 253 252 250 250 253 254 256 260 262 262 260 259 260 261 262 261 261 263 263 262 259 256 258 260 256 254 253 253 257 260 262 266
255 254 254 254 254 254 254 254 254 254 254 253 253 254 254 254 254 253 252 252 251 251 250 249 249 249 249 250 250 250 252 253 254 255 255 256 256 256 256 257 257 257 257 257 256 255 255 255 254 254 254 253 252 252 252 251 250 250 251 252 254 257 259 260 260 261 262 261 261 261 262 262 262 261 256 254 257 259 258 257 254 254 260 265 268
260 258 257 257 257 256 256 256 255 255 255 254 254 253 254 254 254 254 253 252 252 251 251 250 250 249 249 249 249 249 249 250 251 252 253 253 254 254 254 254 255 255 255 256 256 256 255 255 255 254 253 253 253 252 251 251 250 250 250 251 252 253 256 258 259 261 261 261 259 259 260 260 260 262 258 253 255 262 265 264 259 256 260 266 268
264 263 262 261 260 260 259 259 258 258 257 257 256 255 254 254 254 254 254 253 252 252 251 251 251 250 250 249 249 248 248 248 248 248 249 249 250 250 250 250 251 252 253 254 254 255 255 255 255 255 255 254 253 252 251 251 251 251 250 251 252 253 255 257 259 261 261 261 260 258 259 259 258 260 259 255 255 261 265 265 262 259 261 266 268
268 267 266 265 264 263 263 262 262 261 261 260 260 259 257 256 255 254 254 253 253 253 252 251 251 251 251 250 250 249 249 249 248 247 247 246 246 246 246 247 248 249 250 251 252 253 254 255 255 256 256 256 255 253 252 251 250 251 251 252 252 253 255 257 259 261 261 261 262 260 259 257 255 257 258 257 258 262 265 266 266 267 269 271 271
272 271 270 269 268 267 266 265 264 264 263 263 263 262 262 260 259 257 256 255 254 254 253 253 252 251 251 251 251 251 250 250 250 249 248 247 246 245 245 246 246 247 248 249 251 251 252 253 254 255 255 256 256 255 254 252 251 251 252 253 253 252 253 254 256 257 259 260 260 260 260 259 258 259 260 261 261 261 261 264 269 273 273 272 271
276 276 274 273 272 271 269 268 267 267 265 265 264 264 264 263 263 262 260 259 257 256 255 255 254 253 252 252 252 252 252 252 252 252 251 250 248 247 247 247 248 248 248 249 250 251 252 253 253 254 254 254 254 255 255 254 252 251 251 252 253 253 253 254 255 257 258 260 260 262 263 263 264 264 263 262 261 260 260 263 267 271 272 272 271
280 279 278 277 276 275 274 272 271 270 269 268 267 266 265 264 264 263 263 262 261 260 259 257 256 255 253 252 252 253 253 254 254 254 254 254 252 250 248 248 248 249 250 250 250 251 252 253 253 254 254 253 253 253 255 255 254 253 252 252 253 254 255 256 257 259 261 262 262 262 262 261 261 261 260 260 259 260 263 266 269 272 272 271 271
283 282 281 281 280 279 278 277 275 274 273 271 270 269 267 266 265 264 263 263 262 262 262 261 260 258 257 255 253 253 253 254 255 255 255 256 256 254 252 251 250 249 250 250 251 251 252 253 254 254 254 254 254 253 254 255 255 255 255 254 253 253 255 256 257 258 260 261 260 259 259 259 259 260 261 264 265 265 266 269 272 272 270 268 268
286 286 285 284 283 282 281 280 279 278 277 275 274 272 271 269 268 267 265 264 263 263 263 262 262 261 260 258 256 255 255 255 256 256 256 256 256 256 255 254 252 251 251 251 251 251 252 252 253 253 254 255 255 255 254 254 255 256 256 257 256 254 254 255 255 254 255 258 259 259 258 258 261 264 267 268 268 269 269 270 271 269 266 266 267
288 287 287 286 286 285 284 283 282 282 281 279 278 276 275 273 272 270 269 267 266 265 264 264 263 263 262 261 260 258 257 257 257 256 256 256 256 256 256 255 255 253 252 252 251 251 251 251 252 252 253 254 255 255 256 255 255 256 257 257 258 258 256 255 255 253 252 254 256 258 258 257 258 262 264 265 265 266 268 269 268 266 266 268 270
287 287 287 287 287 287 286 286 285 284 283 283 282 281 279 278 276 275 273 271 269 268 266 265 264 263 263 262 261 260 259 259 259 258 257 257 256 256 256 255 255 254 253 253 252 251 250 250 250 251 252 252 253 254 255 256 256 256 257 258 258 259 259 259 258 256 253 251 251 252 257 259 258 258 260 262 264 265 266 266 267 267 269 272 273
287 287 287 287 287 287 287 287 286 286 285 285 284 283 283 282 280 279 277 276 274 272 270 268 266 265 264 263 262 261 260 260 260 259 259 258 257 256 256 255 255 255 254 254 253 253 252 250 249 249 250 250 251 251 252 254 255 255 256 258 258 258 259 260 261 261 260 258 255 254 257 260 260 259 260 262 264 265 265 265 267 269 272 274 274
288 288 288 288 288 288 287 287 287 286 286 286 286 285 285 284 283 282 281 279 278 277 275 273 271 269 267 265 264 262 260 260 260 259 259 259 258 257 256 256 255 255 254 254 254 253 252 252 250 249 249 249 249 249 249 251 252 253 255 256 257 257 257 258 260 263 264 265 264 263 262 262 261 261 261 262 263 264 264 265 266 267 269 270 270
288 289 289 289 289 289 289 288 288 287 287 287 286 286 286 285 285 284 283 282 281 279 278 277 275 273 272 270 268 265 263 261 260 259 258 258 258 258 258 257 256 255 255 255 254 254 253 252 251 250 250 249 249 248 248 248 249 250 251 253 254 255 256 257 259 262 264 266 268 269 268 267 265 263 262 262 261 261 263 264 262 262 263 265 267
289 289 289 290 289 289 289 289 289 288 288 288 287 287 286 286 285 285 284 284 283 282 280 279 278 276 275 273 272 270 267 265 263 262 260 259 258 258 257 257 256 256 256 255 254 254 254 253 252 251 250 250 250 250 249 248 248 248 248 249 251 253 255 257 259 260 262 263 266 269 270 269 266 262 261 260 259 259 260 261 260 259 261 264 268
288 289 289 289 289 289 289 289 289 288 288 288 288 287 287 286 286 285 285 284 283 282 281 280 279 278 277 276 274 273 272 269 267 266 264 262 261 260 258 257 256 256 256 255 255 254 254 254 254 253 251 250 250 251 251 250 249 248 247 247 248 250 252 253 255 256 258 259 262 265 267 267 265 263 261 259 258 258 259 260 262 263 265 268 271
288 289 289 289 289 289 289 289 289 289 288 288 288 287 287 287 287 286 286 285 284 283 282 281 279 278 277 276 275 274 273 272 270 269 267 265 264 263 262 260 259 257 256 255 255 254 254 253 253 254 254 252 251 251 253 253 252 251 249 248 248 249 249 251 252 253 255 256 259 261 263 266 267 266 264 262 260 259 259 260 262 265 269 272 272
288 289 289 289 289 289 289 289 289 289 289 288 288 288 288 288 288 288 287 286 285 284 283 282 280 278 277 276 275 273 273 272 271 270 269 267 266 265 265 264 263 261 259 257 255 254 253 253 253 253 253 253 252 252 253 255 256 254 252 251 251 250 250 251 252 252 253 255 257 259 261 264 266 267 267 267 265 263 262 262 264 266 268 269 267
289 289 290 290 290 290 290 290 290 289 289 288 288 289 289 289 288 288 287 286 285 284 284 283 282 280 277 276 274 273 272 271 270 269 268 267 266 265 265 264 264 264 263 261 259 257 255 254 253 252 252 252 252 252 252 253 255 256 255 255 254 253 253 253 253 252 253 254 256 258 260 262 264 265 266 268 268 266 265 265 265 265 264 262 260
291 291 291 291 290 290 291 290 290 290 289 289 289 289 289 288 288 287 287 287 286 285 285 284 283 282 280 277 275 274 272 270 269 268 267 266 265 264 264 263 263 263 263 263 261 260 258 257 255 255 254 254 252 251 251 250 252 254 254 255 255 254 255 255 254 253 254 255 256 258 259 261 262 263 262 262 263 263 263 264 264 263 262 260 258
292 292 292 292 292 293 293 293 293 292 292 291 290 290 289 288 288 287 286 286 286 285 285 285 284 284 283 281 278 276 274 272 269 268 266 265 264 263 262 261 260 260 261 262 262 261 260 260 259 258 257 257 256 255 253 251 252 253 253 253 253 254 254 254 254 254 255 255 256 257 258 260 261 261 259 257 257 259 260 261 262 262 262 261 260
294 295 295 296 296 297 297 296 296 295 294 293 292 291 290 289 287 287 286 285 284 284 284 284 284 284 285 284 282 279 277 275 272 269 267 265 263 261 260 259 258 258 258 259 260 260 260 259 259 259 258 258 258 258 257 255 254 255 254 254 254 254 253 252 252 253 253 254 254 255 256 257 258 258 257 254 254 256 258 259 260 261 260 261 261
297 298 298 299 299 299 299 299 298 297 296 296 295 293 292 291 289 287 286 285 283 283 283 282 282 283 283 283 283 281 280 277 275 272 269 266 263 261 259 257 256 256 256 257 258 258 259 259 258 258 258 258 257 257 257 257 255 255 255 255 254 254 253 252 250 250 250 250 251 252 253 254 254 255 254 253 253 255 257 258 259 258 258 259 258
299 299 299 299 300 300 300 301 301 301 300 299 298 296 294 293 291 290 289 287 285 283 282 281 281 281 281 281 281 281 280 278 276 273 270 267 264 262 259 257 256 255 255 255 256 256 257 257 258 257 257 256 255 254 255 255 254 253 253 253 252 251 250 249 248 248 247 248 248 248 249 250 250 251 252 252 252 251 252 253 254 254 254 253 252
299 299 299 299 300 301 303 304 304 304 303 302 300 298 296 295 293 291 291 290 288 286 283 281 280 279 279 279 280 280 279 278 276 273 270 267 264 262 259 257 256 257 256 256 256 256 255 255 255 255 255 254 253 251 250 251 252 251 249 248 247 246 245 244 245 245 245 245 245 245 246 246 247 247 248 248 247 246 246 248 249 249 248 247 246
298 299 299 300 302 303 305 306 306 306 305 304 302 300 298 297 296 295 293 292 290 289 287 284 282 280 278 277 277 277 278 277 275 272 271 268 264 262 260 258 258 258 257 256 257 257 255 254 253 253 252 251 250 248 246 246 247 247 245 244 242 242 241 240 240 241 242 242 242 243 244 244 244 244 243 242 241 241 241 242 242 241 241 242 241
299 299 300 301 303 304 306 307 308 308 308 308 306 303 300 298 298 298 297 294 292 290 289 287 285 283 281 278 276 275 276 275 273 272 270 268 266 264 263 261 260 260 260 260 260 259 258 255 253 252 251 249 247 244 242 243 245 244 243 242 241 240 239 237 236 237 238 239 240 241 240 239 238 237 237 236 236 236 236 235 235 236 236 236 237
299 299 300 301 303 305 307 308 309 310 311 312 310 308 304 301 299 299 299 296 294 291 289 288 286 285 283 280 278 276 276 275 274 272 270 269 267 265 264 263 263 263 264 265 263 261 260 257 254 251 249 246 244 240 239 245 249 246 241 241 242 240 237 235 234 234 235 236 237 237 234 231 229 228 229 230 230 231 231 231 231 232 232 234 238
300 301 301 302 303 305 306 308 310 312 315 315 313 311 309 306 303 300 298 296 294 292 290 288 286 284 282 281 279 278 276 275 274 272 271 269 268 267 266 266 265 266 266 263 260 258 258 257 254 249 243 239 236 234 236 244 250 246 239 237 238 236 234 233 232 232 233 234 233 230 226 223 222 222 223 225 225 226 227 227 227 229 233 237 242
301 302 302 302 303 303 305 308 311 314 316 316 316 314 313 311 308 305 302 298 294 290 288 287 287 285 283 280 278 275 274 273 272 272 271 270 269 270 270 269 266 264 262 259 257 255 255 256 253 245 237 233 233 233 235 241 246 243 236 233 233 231 229 229 230 231 231 230 228 223 219 217 218 219 220 221 221 222 223 225 228 232 236 240 244
303 303 303 303 303 303 305 309 312 314 316 317 318 317 315 313 311 309 307 304 299 293 287 283 282 283 282 281 278 275 273 271 271 273 275 275 274 274 273 269 264 260 257 255 254 252 251 251 247 239 234 234 235 235 236 239 240 238 233 230 229 227 226 226 229 229 228 225 221 217 213 212 214 216 217 218 219 221 224 227 231 234 237 240 244
304 304 304 304 304 304 306 308 311 314 317 319 318 317 316 314 313 312 311 307 303 300 294 284 275 273 275 278 280 280 279 277 277 278 280 281 281 279 274 268 263 258 254 250 246 244 243 242 240 236 233 233 233 233 234 235 234 232 229 226 225 225 225 226 227 225 220 217 213 210 208 209 211 213 216 217 220 223 227 229 231 234 237 241 245
307 307 306 306 306 306 306 309 312 314 317 318 318 318 317 316 316 315 313 310 306 302 301 295 282 270 268 272 277 281 282 281 281 282 282 283 283 281 273 263 256 252 249 244 239 238 237 236 236 235 231 229 230 233 235 234 230 226 224 221 221 222 223 223 221 217 212 209 206 204 205 207 210 214 217 221 223 225 227 228 232 235 238 241 243
309 309 310 310 310 309 308 310 312 314 316 318 318 319 318 318 318 317 315 312 308 306 305 304 296 283 272 269 272 277 280 279 277 276 277 277 274 267 257 250 244 243 245 243 241 240 239 238 237 234 228 225 227 230 232 232 226 220 218 218 218 218 218 215 211 208 204 202 201 202 205 209 213 216 219 221 222 224 227 230 233 235 237 239 240
309 310 312 313 313 312 312 312 313 315 316 317 319 320 320 319 318 318 316 313 310 309 309 308 304 296 287 277 272 273 275 274 269 265 265 262 250 235 231 234 234 238 247 250 247 245 245 243 240 235 228 226 227 227 227 228 223 217 215 216 216 215 212 206 201 198 197 198 201 204 209 213 215 217 219 220 222 225 228 230 232 232 233 235 235
305 307 310 312 314 314 315 316 316 316 317 318 320 321 321 320 319 318 317 314 311 308 306 305 302 298 294 288 281 277 275 271 264 258 256 249 235 224 224 229 231 237 246 249 246 244 245 244 242 238 232 228 227 226 225 226 222 216 213 214 215 211 203 195 190 190 194 199 203 207 210 213 214 216 219 221 224 226 227 228 229 228 228 228 228
301 303 305 308 311 314 316 317 318 318 318 319 320 322 323 322 320 319 317 315 311 306 303 300 298 295 293 290 287 284 281 273 265 259 256 250 241 235 236 239 242 245 250 250 246 244 242 240 239 237 233 229 228 227 225 223 222 219 216 212 207 199 190 185 185 190 195 200 204 206 209 212 214 217 220 222 223 224 224 224 222 220 219 221 225
297 299 301 303 306 310 314 317 318 319 319 319 320 322 324 324 322 319 317 315 312 307 303 298 296 294 292 291 290 290 287 278 267 262 261 259 254 252 254 258 261 261 259 256 253 250 246 240 237 236 234 231 230 229 226 223 221 218 209 199 189 182 181 182 186 191 195 199 203 206 209 212 215 217 219 219 219 220 219 216 214 213 216 221 227
295 296 297 299 302 305 309 313 316 318 319 319 320 321 324 325 323 320 317 316 314 311 306 301 297 295 293 293 293 293 291 281 269 263 264 266 267 268 270 274 275 271 266 261 257 253 248 241 233 230 230 229 228 227 224 219 209 198 188 181 176 176 179 184 188 192 196 200 204 207 210 213 215 216 216 216 215 213 210 209 210 213 218 223 229
294 294 295 297 299 301 304 308 312 316 318 319 319 320 322 324 324 322 318 317 316 314 310 305 301 298 297 297 296 293 291 285 275 267 267 271 275 279 280 279 275 270 264 259 252 245 237 228 222 219 219 217 214 210 205 199 189 180 175 174 175 178 181 186 191 195 199 202 206 209 212 213 213 213 212 210 208 206 205 207 212 216 220 225 232
294 294 295 296 297 298 300 303 306 311 315 318 319 319 321 323 325 323 320 318 317 316 313 309 305 302 301 299 297 293 289 285 280 274 271 273 279 285 284 276 265 255 248 237 229 223 214 207 203 199 196 193 189 185 181 179 176 173 173 175 179 182 186 190 194 199 203 206 209 210 210 209 209 208 206 203 202 203 206 210 214 218 223 229 237
295 295 295 295 295 295 296 298 301 305 309 314 317 318 319 320 323 324 321 319 318 317 315 312 310 308 305 303 300 295 289 285 283 278 273 275 283 290 289 278 252 196 165 165 172 180 185 186 186 184 181 178 176 175 174 175 175 176 178 181 184 188 193 196 199 203 205 207 207 206 204 203 202 200 199 200 202 205 209 213 217 222 228 236 246
296 296 295 295 294 294 293 294 296 299 303 308 312 315 317 318 319 321 321 320 318 318 317 315 312 311 310 308 303 297 291 288 285 276 273 280 291 297 295 286 255 152 147 150 152 154 160 169 177 180 180 177 176 178 179 181 182 184 187 190 193 196 198 201 203 204 203 202 201 200 199 197 196 196 198 200 204 207 211 215 221 228 236 246 257
298 298 297 297 296 295 294 293 294 295 298 302 306 310 313 315 316 317 319 318 317 317 317 316 314 313 313 311 306 300 295 292 288 276 272 281 293 296 283 266 225 177 162 159 158 157 160 168 177 181 182 181 181 183 185 187 189 192 194 196 198 200 200 200 200 199 198 197 196 195 194 193 194 196 200 202 205 210 214 220 227 237 246 257 267
298 298 298 299 299 298 297 295 294 294 295 296 299 303 307 310 312 313 314 315 315 315 315 315 314 314 312 310 306 300 297 293 287 274 264 265 266 256 240 225 206 193 181 174 171 170 171 174 179 183 184 185 186 187 188 190 192 194 196 197 198 198 198 196 195 194 193 192 191 191 192 194 196 199 202 205 208 213 220 228 237 247 257 266 274
299 299 299 299 299 299 299 298 297 296 294 294 295 296 299 303 307 309 310 311 312 311 311 311 311 311 309 307 303 298 293 289 279 265 251 242 229 218 213 208 201 195 190 186 182 181 179 179 181 184 186 187 188 189 190 191 192 193 194 194 193 192 192 191 190 189 189 189 189 191 194 197 200 203 206 210 214 221 229 238 247 256 265 272 279
301 302 302 301 301 301 300 299 298 297 296 294 293 293 293 295 299 303 305 306 306 307 306 305 305 304 304 302 298 292 287 280 270 254 240 231 221 209 202 199 197 194 192 189 187 186 184 183 184 185 186 187 187 188 188 189 189 188 188 188 188 188 188 188 187 187 187 189 192 196 199 202 205 208 212 217 223 231 239 247 256 264 272 278 283
Height
3010 3011 3011 3011 3012 3012 3012 3013 3013 3013 3014 3014 3015 3016 3017 3017 3018 3019 3019 3020 3020 3021 3022 3022 3023 3024 3024 3025 3026 3027 3027 3028 3029 3029 3030 3031 3031 3032 3033 3034 3035 3036 3038 3039 3039 3040 3040 3041 3042 3043 3044 3045 3045 3046 3047 3047 3048 3049 3049 3050 3051 3052 3053 3053 3053 3054 3056 3057 3057 3057 3057 3057 3057 3058 3059 3059 3060 3060 3061 3061 3062 3062 3063 3063 3063
3007 3008 3008 3008 3008 3009 3009 3009 3010 3010 3011 3011 3012 3012 3013 3014 3015 3015 3016 3016 3017 3017 3018 3019 3020 3020 3021 3022 3022 3023 3023 3023 3024 3025 3026 3027 3027 3028 3029 3030 3030 3031 3033 3033 3034 3035 3035 3037 3038 3038 3039 3040 3041 3043 3044 3044 3044 3045 3045 3046 3047 3049 3050 3050 3049 3049 3051 3052 3053 3054 3054 3054 3054 3054 3055 3055 3056 3056 3057 3057 3058 3058 3059 3059 3059
3004 3004 3004 3005 3005 3005 3006 3006 3006 3007 3007 3008 3008 3009 3009 3010 3011 3011 3012 3013 3013 3014 3015 3015 3016 3017 3017 3018 3018 3019 3019 3019 3020 3021 3022 3023 3023 3024 3024 3025 3026 3027 3028 3029 3029 3030 3031 3032 3033 3034 3035 3035 3036 3038 3039 3040 3040 3041 3042 3042 3043 3043 3045 3046 3045 3045 3046 3047 3049 3050 3050 3050 3050 3050 3051 3051 3052 3052 3052 3053 3054 3054 3055 3055 3055
3000 3000 3001 3001 3001 3001 3002 3002 3003 3003 3003 3004 3004 3005 3005 3006 3007 3007 3008 3009 3009 3010 3011 3011 3012 3013 3013 3014 3014 3015 3015 3015 3016 3016 3017 3018 3019 3020 3020 3021 3022 3023 3023 3024 3025 3026 3026 3027 3028 3029 3030 3031 3031 3032 3034 3035 3036 3036 3038 3039 3039 3039 3039 3041 3041 3041 3042 3043 3044 3045 3046 3046 3046 3046 3047 3047 3048 3048 3048 3049 3049 3050 3050 3051 3051
2997 2997 2997 2997 2997 2997 2998 2998 2998 2999 2999 3000 3000 3001 3001 3002 3002 3003 3004 3004 3005 3006 3006 3007 3008 3008 3009 3010 3010 3010 3011 3011 3012 3012 3013 3014 3015 3015 3016 3017 3018 3018 3019 3020 3020 3021 3022 3023 3024 3024 3025 3026 3027 3027 3028 3029 3030 3031 3033 3034 3034 3034 3035 3036 3037 3037 3037 3038 3039 3040 3041 3041 3042 3042 3042 3043 3043 3044 3044 3044 3045 3045 3046 3046 3046
2993 2993 2993 2993 2993 2993 2993 2994 2994 2994 2995 2995 2996 2996 2997 2997 2998 2998 2999 3000 3001 3001 3002 3002 3003 3004 3004 3005 3006 3006 3006 3007 3008 3009 3009 3010 3010 3011 3012 3013 3013 3014 3015 3015 3016 3017 3017 3018 3019 3020 3020 3021 3022 3022 3023 3024 3025 3026 3027 3028 3029 3030 3030 3031 3032 3032 3033 3033 3033 3034 3035 3036 3037 3037 3038 3038 3039 3040 3040 3040 3040 3041 3041 3040 3040
2989 2989 2990 2990 2990 2990 2990 2990 2990 2990 2990 2991 2991 2992 2992 2993 2993 2994 2994 2995 2996 2996 2997 2998 2998 2999 3000 3000 3001 3002 3002 3002 3003 3004 3005 3006 3007 3007 3008 3009 3010 3010 3011 3011 3012 3012 3013 3014 3014 3015 3016 3016 3017 3018 3018 3019 3019 3020 3022 3023 3024 3025 3025 3025 3026 3027 3027 3028 3029 3029 3030 3031 3032 3033 3033 3034 3034 3035 3036 3035 3035 3036 3035 3035 3035
2985 2985 2985 2985 2985 2985 2985 2986 2986 2986 2986 2986 2986 2987 2987 2988 2988 2989 2990 2990 2991 2991 2992 2993 2993 2994 2995 2996 2996 2997 2997 2998 2998 2999 3000 3001 3002 3003 3004 3005 3006 3007 3007 3008 3008 3009 3009 3009 3010 3010 3011 3012 3012 3013 3013 3014 3014 3015 3016 3017 3018 3019 3020 3021 3021 3022 3022 3023 3024 3025 3025 3026 3027 3028 3029 3030 3030 3031 3031 3031 3030 3030 3030 3030 3031
2980 2980 2980 2980 2981 2981 2981 2981 2981 2981 2981 2981 2982 2982 2982 2983 2983 2984 2985 2985 2986 2987 2987 2988 2988 2989 2990 2991 2991 2992 2993 2993 2993 2994 2995 2996 2997 2999 3000 3001 3001 3002 3003 3004 3004 3005 3005 3005 3006 3006 3007 3008 3008 3009 3009 3009 3010 3010 3011 3012 3013 3014 3015 3016 3016 3017 3017 3018 3019 3020 3020 3021 3022 3023 3024 3026 3026 3026 3026 3026 3025 3025 3026 3026 3026
2975 2975 2975 2975 2975 2975 2976 2976 2976 2976 2976 2976 2977 2977 2977 2977 2978 2978 2979 2980 2981 2981 2982 2983 2983 2984 2985 2986 2987 2987 2988 2988 2988 2989 2989 2990 2992 2993 2994 2995 2996 2997 2998 2999 3000 3000 3001 3001 3002 3003 3003 3003 3004 3004 3005 3005 3005 3006 3006 3007 3008 3009 3010 3010 3011 3011 3011 3012 3013 3014 3015 3016 3017 3018 3019 3020 3021 3020 3021 3021 3020 3020 3021 3021 3020
2970 2969 2969 2969 2969 2970 2970 2970 2970 2970 2971 2971 2971 2971 2972 2972 2972 2973 2973 2974 2975 2976 2977 2977 2978 2978 2979 2981 2982 2982 2983 2984 2984 2984 2984 2985 2985 2987 2988 2990 2991 2991 2992 2993 2995 2996 2996 2997 2998 2998 2999 2999 3000 3000 3000 3001 3001 3001 3002 3002 3003 3004 3004 3005 3005 3006 3007 3007 3008 3009 3011 3012 3013 3013 3014 3014 3014 3015 3015 3015 3015 3015 3016 3015 3015
2964 2963 2963 2963 2963 2963 2963 2964 2964 2964 2965 2965 2965 2965 2966 2966 2966 2967 2967 2968 2969 2970 2970 2971 2972 2973 2974 2975 2976 2977 2978 2979 2979 2979 2979 2979 2980 2981 2982 2984 2985 2986 2987 2988 2989 2990 2991 2992 2993 2994 2994 2994 2995 2995 2995 2996 2996 2997 2997 2997 2998 2999 2999 3000 3000 3002 3002 3003 3004 3005 3006 3007 3007 3008 3009 3009 3009 3009 3009 3009 3010 3010 3010 3010 3009
2957 2957 2957 2957 2956 2956 2956 2957 2957 2957 2958 2958 2958 2959 2959 2960 2960 2960 2961 2961 2962 2963 2964 2965 2966 2967 2967 2968 2970 2971 2972 2973 2973 2973 2974 2974 2974 2974 2976 2977 2978 2980 2981 2982 2983 2984 2986 2987 2988 2989 2990 2990 2990 2990 2990 2991 2991 2991 2992 2993 2993 2994 2994 2995 2995 2996 2998 2998 2999 3000 3001 3002 3002 3003 3003 3003 3003 3003 3003 3004 3005 3005 3005 3005 3005
2951 2950 2950 2950 2949 2949 2949 2949 2950 2950 2950 2950 2951 2951 2952 2952 2953 2953 2954 2955 2956 2956 2957 2958 2959 2959 2960 2961 2963 2965 2966 2967 2967 2968 2968 2968 2968 2968 2969 2970 2972 2973 2975 2976 2977 2979 2980 2981 2982 2983 2985 2985 2985 2985 2985 2985 2986 2986 2987 2988 2988 2989 2989 2989 2990 2991 2992 2993 2994 2995 2996 2996 2997 2998 2999 2998 2998 2999 2999 2999 3000 3000 3000 3000 3000
2945 2945 2944 2944 2943 2943 2942 2942 2942 2942 2942 2942 2943 2943 2943 2944 2944 2945 2946 2947 2948 2949 2950 2951 2952 2952 2953 2954 2955 2957 2959 2960 2960 2961 2961 2961 2961 2962 2962 2963 2965 2967 2968 2969 2971 2972 2974 2975 2976 2978 2979 2979 2980 2980 2979 2980 2980 2981 2982 2982 2983 2984 2984 2984 2985 2986 2987 2988 2989 2990 2990 2991 2991 2993 2993 2994 2993 2993 2994 2994 2995 2995 2995 2995 2995
2941 2940 2939 2938 2938 2937 2936 2936 2936 2935 2935 2935 2935 2935 2935 2935 2936 2936 2937 2938 2939 2940 2941 2942 2944 2945 2946 2947 2947 2949 2952 2953 2953 2954 2954 2954 2954 2955 2955 2956 2957 2959 2961 2963 2964 2966 2967 2969 2970 2972 2972 2973 2974 2974 2974 2974 2975 2975 2976 2977 2977 2978 2979 2979 2980 2981 2982 2983 2983 2984 2985 2985 2986 2987 2987 2988 2988 2988 2989 2989 2989 2990 2990 2989 2990
2936 2935 2934 2933 2933 2932 2931 2930 2930 2929 2929 2929 2928 2928 2927 2927 2927 2927 2928 2929 2930 2931 2931 2933 2934 2936 2937 2939 2939 2941 2944 2946 2946 2946 2947 2947 2947 2947 2948 2949 2950 2952 2954 2956 2957 2958 2960 2962 2963 2965 2966 2967 2968 2968 2968 2968 2969 2970 2970 2971 2972 2973 2974 2975 2975 2976 2976 2977 2978 2978 2979 2979 2980 2981 2981 2982 2982 2983 2983 2983 2984 2985 2985 2984 2984
2931 2930 2929 2928 2927 2926 2925 2925 2924 2924 2923 2922 2922 2921 2921 2920 2920 2919 2919 2919 2920 2921 2921 2922 2924 2926 2927 2929 2930 2931 2935 2937 2938 2939 2940 2939 2939 2939 2940 2940 2942 2944 2946 2948 2949 2951 2953 2954 2956 2957 2959 2960 2961 2961 2962 2962 2963 2964 2965 2965 2967 2968 2969 2970 2970 2970 2971 2971 2972 2972 2973 2974 2974 2975 2975 2976 2976 2977 2978 2978 2979 2979 2979 2979 2980
2926 2925 2924 2923 2921 2920 2920 2919 2918 2917 2917 2916 2915 2915 2914 2913 2913 2912 2911 2910 2911 2911 2911 2912 2914 2915 2916 2918 2919 2921 2923 2927 2928 2929 2931 2932 2931 2931 2932 2932 2934 2936 2937 2939 2941 2943 2945 2947 2948 2950 2951 2953 2954 2955 2956 2956 2956 2958 2959 2959 2961 2962 2963 2964 2964 2965 2965 2966 2966 2967 2967 2968 2969 2969 2970 2971 2971 2972 2973 2973 2974 2974 2974 2975 2975
2921 2920 2918 2917 2916 2915 2914 2913 2912 2911 2910 2910 2909 2908 2907 2907 2906 2905 2904 2903 2902 2903 2903 2902 2903 2905 2906 2906 2908 2910 2911 2914 2917 2919 2921 2922 2922 2922 2923 2924 2926 2928 2928 2930 2932 2935 2937 2939 2940 2942 2944 2945 2947 2948 2949 2949 2950 2951 2952 2953 2955 2956 2957 2958 2958 2959 2960 2960 2961 2961 2962 2962 2963 2964 2964 2965 2966 2967 2968 2968 2969 2969 2969 2970 2970
2916 2914 2913 2912 2911 2910 2908 2907 2906 2905 2904 2903 2903 2902 2901 2899 2899 2898 2897 2896 2895 2895 2894 2893 2893 2895 2896 2896 2897 2899 2899 2901 2904 2906 2908 2911 2912 2912 2913 2915 2917 2917 2919 2921 2923 2926 2929 2931 2933 2935 2936 2937 2939 2941 2942 2943 2943 2944 2945 2947 2948 2950 2950 2951 2952 2953 2954 2954 2955 2956 2956 2957 2958 2958 2959 2960 2960 2961 2962 2963 2963 2963 2964 2964 2964
2910 2909 2908 2907 2906 2905 2903 2902 2901 2900 2898 2897 2896 2895 2894 2893 2891 2890 2889 2888 2888 2887 2887 2885 2885 2886 2887 2887 2887 2889 2889 2889 2891 2893 2895 2898 2900 2900 2901 2904 2906 2906 2907 2910 2914 2916 2919 2922 2924 2927 2928 2929 2931 2933 2935 2936 2936 2937 2939 2940 2941 2943 2944 2944 2945 2946 2947 2948 2949 2950 2951 2952 2953 2953 2954 2954 2955 2955 2956 2957 2957 2958 2958 2959 2959
2906 2905 2903 2902 2901 2900 2898 2897 2896 2894 2893 2891 2890 2889 2888 2886 2885 2883 2881 2880 2880 2880 2879 2878 2876 2876 2878 2878 2878 2879 2879 2880 2880 2881 2882 2884 2886 2888 2889 2892 2894 2894 2894 2898 2903 2906 2909 2912 2915 2917 2919 2920 2923 2925 2927 2928 2929 2930 2932 2933 2934 2936 2937 2937 2938 2939 2940 2941 2943 2944 2945 2946 2947 2947 2948 2948 2949 2949 2950 2951 2951 2952 2952 2953 2953
2901 2900 2899 2897 2896 2895 2893 2892 2890 2889 2887 2885 2884 2882 2881 2879 2878 2876 2874 2873 2872 2872 2871 2870 2868 2868 2868 2869 2870 2870 2870 2870 2871 2872 2872 2872 2874 2876 2877 2879 2881 2881 2882 2885 2890 2893 2897 2900 2903 2905 2907 2909 2912 2914 2917 2919 2921 2922 2924 2925 2927 2929 2930 2930 2931 2932 2933 2935 2936 2938 2939 2940 2941 2941 2942 2943 2943 2944 2944 2945 2945 2946 2946 2947 2947
2896 2895 2894 2892 2891 2890 2889 2887 2885 2883 2881 2879 2878 2876 2874 2873 2871 2870 2868 2866 2865 2864 2863 2862 2861 2860 2860 2860 2861 2861 2861 2861 2862 2863 2863 2863 2864 2865 2866 2867 2869 2870 2870 2872 2876 2880 2883 2887 2890 2892 2895 2897 2900 2902 2905 2909 2912 2913 2914 2916 2919 2920 2922 2923 2924 2925 2927 2928 2930 2931 2932 2934 2934 2935 2936 2937 2937 2938 2938 2939 2940 2940 2941 2941 2942
2892 2891 2889 2888 2886 2885 2884 2882 2880 2878 2876 2874 2872 2870 2868 2866 2865 2863 2862 2860 2858 2857 2856 2855 2854 2854 2853 2852 2852 2852 2852 2853 2854 2854 2854 2854 2854 2856 2856 2857 2859 2861 2861 2862 2864 2867 2870 2873 2876 2879 2881 2884 2887 2889 2892 2897 2901 2901 2903 2906 2909 2911 2913 2915 2916 2918 2920 2921 2922 2923 2925 2927 2928 2929 2930 2931 2931 2931 2932 2933 2934 2934 2935 2936 2937
2887 2886 2885 2883 2882 2880 2879 2877 2875 2873 2871 2869 2866 2864 2862 2860 2858 2857 2855 2853 2852 2851 2849 2849 2848 2847 2846 2846 2845 2844 2845 2845 2846 2846 2845 2845 2845 2847 2848 2848 2850 2852 2852 2853 2855 2857 2858 2860 2863 2866 2868 2872 2875 2877 2880 2884 2888 2889 2891 2895 2898 2901 2903 2905 2907 2909 2911 2912 2914 2915 2917 2919 2920 2921 2923 2924 2925 2925 2926 2927 2928 2929 2930 2931 2931
2883 2882 2881 2879 2878 2876 2874 2872 2871 2868 2866 2864 2861 2858 2856 2854 2852 2850 2848 2846 2845 2844 2843 2842 2841 2840 2839 2839 2838 2837 2838 2839 2839 2838 2837 2837 2838 2839 2839 2840 2842 2843 2845 2846 2847 2848 2849 2850 2852 2854 2857 2860 2863 2866 2868 2871 2875 2878 2881 2885 2888 2890 2892 2895 2897 2899 2901 2903 2905 2907 2909 2911 2913 2914 2916 2917 2918 2920 2921 2922 2922 2923 2924 2925 2926
2879 2878 2876 2875 2873 2872 2870 2868 2865 2863 2861 2859 2856 2853 2850 2848 2845 2844 2842 2840 2838 2837 2836 2836 2835 2833 2833 2833 2831 2830 2832 2833 2832 2830 2830 2831 2831 2831 2832 2833 2835 2836 2837 2839 2840 2840 2841 2842 2843 2845 2847 2850 2853 2855 2858 2860 2863 2867 2871 2874 2877 2880 2883 2885 2888 2890 2893 2896 2898 2900 2902 2904 2906 2908 2909 2911 2912 2913 2915 2916 2917 2918 2919 2920 2921
2876 2874 2872 2871 2869 2867 2865 2863 2861 2858 2856 2853 2851 2849 2846 2843 2840 2838 2836 2835 2833 2831 2829 2829 2828 2827 2826 2827 2826 2824 2825 2827 2826 2825 2824 2825 2825 2825 2825 2827 2828 2828 2830 2831 2832 2831 2832 2834 2835 2837 2839 2842 2844 2846 2849 2851 2853 2857 2861 2864 2867 2871 2874 2877 2880 2883 2886 2888 2891 2893 2896 2898 2900 2901 2903 2905 2906 2908 2909 2911 2912 2913 2914 2916 2917
2872 2870 2868 2867 2865 2863 2861 2859 2856 2854 2851 2848 2846 2843 2841 2840 2837 2834 2831 2829 2828 2826 2824 2823 2823 2821 2820 2820 2819 2819 2819 2820 2820 2819 2819 2819 2819 2819 2820 2821 2822 2822 2823 2824 2824 2823 2824 2827 2828 2830 2833 2835 2837 2840 2842 2844 2846 2849 2852 2855 2859 2862 2866 2870 2873 2876 2879 2881 2884 2887 2890 2891 2893 2895 2897 2899 2901 2903 2904 2906 2907 2908 2910 2911 2913
2868 2866 2864 2863 2861 2859 2857 2854 2852 2850 2847 2844 2841 2838 2836 2834 2833 2832 2829 2825 2823 2821 2820 2818 2818 2817 2815 2815 2814 2813 2814 2814 2814 2814 2814 2814 2814 2814 2815 2815 2816 2817 2818 2818 2817 2817 2818 2820 2822 2824 2826 2828 2831 2834 2838 2840 2841 2842 2846 2849 2852 2856 2859 2863 2867 2870 2873 2875 2878 2880 2883 2885 2887 2889 2891 2893 2895 2898 2900 2901 2903 2904 2906 2907 2909
2863 2862 2860 2858 2857 2855 2852 2850 2848 2845 2842 2839 2837 2834 2831 2829 2827 2826 2826 2823 2820 2817 2815 2814 2813 2812 2811 2810 2809 2809 2809 2809 2808 2808 2808 2808 2808 2809 2809 2810 2811 2811 2812 2811 2810 2811 2813 2815 2816 2819 2821 2823 2826 2830 2833 2835 2836 2838 2841 2844 2847 2850 2854 2857 2861 2864 2866 2869 2871 2873 2875 2878 2881 2883 2886 2888 2891 2893 2896 2897 2899 2901 2902 2904 2905
2859 2857 2856 2854 2853 2851 2849 2846 2844 2841 2838 2835 2833 2830 2827 2825 2822 2820 2819 2819 2817 2814 2811 2809 2808 2807 2806 2806 2806 2805 2805 2804 2803 2803 2803 2803 2803 2803 2803 2804 2804 2805 2805 2805 2805 2807 2808 2810 2812 2814 2817 2819 2822 2825 2827 2830 2832 2834 2836 2839 2842 2845 2848 2851 2854 2857 2859 2862 2865 2867 2869 2872 2876 2879 2882 2884 2887 2889 2892 2894 2896 2897 2899 2900 2902
2855 2853 2852 2850 2849 2847 2845 2842 2840 2837 2835 2832 2829 2826 2824 2821 2819 2816 2814 2812 2811 2811 2809 2807 2805 2803 2802 2801 2801 2801 2801 2800 2800 2799 2798 2798 2798 2799 2799 2799 2799 2800 2800 2801 2802 2803 2804 2806 2808 2811 2813 2816 2818 2820 2823 2825 2827 2829 2831 2833 2836 2839 2842 2844 2847 2850 2853 2856 2859 2861 2864 2868 2871 2875 2879 2881 2884 2886 2888 2890 2892 2894 2895 2897 2898
2852 2850 2848 2847 2845 2843 2841 2839 2836 2834 2831 2829 2826 2823 2821 2818 2815 2813 2810 2808 2806 2805 2804 2804 2803 2801 2799 2797 2797 2797 2797 2797 2797 2796 2795 2794 2794 2795 2795 2795 2795 2796 2797 2798 2800 2801 2803 2804 2806 2808 2810 2812 2814 2816 2817 2819 2821 2823 2825 2827 2830 2832 2835 2838 2841 2844 2847 2850 2853 2857 2860 2864 2868 2872 2875 2878 2880 2883 2885 2887 2888 2890 2891 2893 2894
2848 2846 2845 2843 2841 2840 2838 2836 2833 2831 2828 2826 2823 2820 2818 2815 2812 2809 2807 2805 2803 2801 2800 2799 2799 2799 2797 2795 2795 2795 2795 2794 2794 2793 2792 2792 2791 2791 2791 2792 2793 2794 2795 2797 2798 2799 2800 2801 2802 2804 2806 2807 2809 2810 2812 2814 2815 2817 2819 2822 2824 2827 2830 2833 2836 2839 2843 2846 2850 2854 2858 2862 2866 2869 2872 2875 2877 2880 2882 2883 2885 2887 2888 2889 2891
2845 2843 2841 2840 2838 2836 2834 2833 2830 2828 2826 2823 2820 2817 2815 2812 2809 2807 2804 2802 2800 2798 2797 2796 2796 2796 2795 2794 2793 2793 2793 2792 2792 2791 2790 2790 2789 2789 2789 2790 2791 2792 2794 2794 2795 2795 2796 2797 2798 2799 2801 2802 2804 2806 2807 2809 2811 2813 2815 2817 2820 2822 2825 2828 2832 2835 2839 2843 2847 2852 2856 2860 2863 2866 2869 2872 2874 2876 2879 2880 2882 2883 2884 2886 2887
2842 2840 2838 2836 2835 2833 2831 2829 2827 2825 2823 2821 2818 2815 2812 2809 2807 2804 2802 2800 2798 2796 2795 2794 2793 2793 2793 2792 2792 2791 2791 2790 2790 2789 2788 2788 2787 2787 2788 2789 2790 2791 2791 2791 2791 2792 2793 2794 2795 2796 2797 2798 2800 2802 2804 2805 2807 2809 2811 2813 2816 2819 2822 2825 2828 2832 2837 2841 2846 2850 2854 2857 2861 2864 2867 2869 2871 2873 2875 2877 2878 2879 2881 2882 2884
2839 2837 2835 2834 2832 2830 2828 2826 2824 2822 2820 2818 2816 2813 2810 2807 2805 2802 2800 2798 2796 2795 2793 2793 2792 2791 2790 2790 2789 2789 2788 2788 2788 2787 2787 2786 2786 2786 2786 2787 2787 2788 2788 2788 2788 2789 2789 2790 2791 2793 2794 2796 2797 2799 2801 2802 2804 2805 2808 2810 2813 2815 2818 2822 2826 2831 2836 2840 2844 2848 2852 2855 2858 2861 2864 2866 2868 2870 2872 2874 2875 2876 2878 2879 2881
2836 2834 2833 2831 2829 2827 2825 2823 2821 2819 2817 2815 2813 2811 2808 2806 2803 2801 2798 2796 2795 2794 2792 2791 2790 2789 2789 2788 2787 2787 2786 2786 2786 2786 2785 2785 2784 2784 2784 2784 2784 2784 2784 2784 2784 2785 2785 2786 2788 2790 2791 2793 2795 2797 2798 2800 2801 2803 2805 2807 2810 2813 2817 2821 2825 2830 2835 2839 2842 2846 2850 2853 2856 2858 2861 2863 2865 2867 2869 2870 2872 2873 2875 2877 2878
2833 2831 2830 2828 2827 2825 2823 2821 2819 2817 2815 2813 2811 2809 2806 2804 2802 2799 2797 2795 2793 2792 2791 2790 2789 2788 2787 2786 2785 2785 2784 2784 2784 2784 2784 2783 2783 2783 2783 2783 2782 2782 2781 2781 2781 2782 2782 2783 2785 2787 2789 2791 2792 2794 2796 2797 2799 2801 2803 2806 2809 2812 2816 2821 2825 2829 2833 2837 2841 2844 2847 2850 2853 2856 2858 2860 2862 2864 2866 2868 2869 2871 2873 2875 2876
2829 2828 2827 2825 2824 2822 2821 2819 2817 2815 2813 2811 2809 2807 2805 2803 2800 2798 2796 2794 2792 2791 2789 2788 2787 2786 2785 2784 2784 2783 2782 2782 2782 2782 2782 2782 2782 2782 2781 2781 2780 2779 2778 2778 2778 2779 2780 2781 2782 2784 2786 2788 2790 2792 2794 2795 2797 2800 2802 2805 2809 2812 2816 2821 2825 2828 2832 2836 2839 2842 2845 2848 2850 2853 2855 2857 2859 2861 2863 2866 2867 2869 2871 2873 2874
2825 2824 2823 2822 2821 2819 2818 2816 2815 2813 2811 2809 2807 2805 2803 2801 2799 2797 2795 2793 2791 2790 2788 2787 2786 2785 2784 2783 2782 2782 2781 2781 2780 2781 2781 2781 2781 2780 2780 2779 2778 2777 2776 2776 2776 2777 2778 2779 2781 2783 2785 2787 2788 2790 2792 2794 2797 2799 2802 2806 2809 2813 2816 2820 2824 2828 2831 2834 2837 2840 2843 2846 2848 2851 2853 2855 2857 2859 2862 2864 2866 2867 2869 2871 2872
2821 2820 2819 2818 2817 2816 2815 2813 2812 2811 2809 2807 2805 2803 2801 2799 2798 2796 2794 2792 2790 2789 2787 2786 2785 2784 2783 2782 2781 2780 2780 2779 2779 2779 2779 2779 2779 2779 2778 2777 2776 2776 2775 2775 2776 2776 2777 2779 2780 2782 2784 2786 2788 2790 2792 2795 2798 2800 2803 2806 2810 2813 2816 2820 2823 2827 2830 2833 2836 2838 2841 2844 2846 2848 2851 2853 2855 2858 2860 2862 2864 2865 2867 2868 2869
2817 2817 2816 2815 2814 2813 2812 2810 2809 2808 2807 2805 2804 2802 2800 2798 2796 2795 2793 2791 2790 2788 2786 2785 2784 2783 2782 2781 2780 2779 2779 2778 2778 2778 2778 2778 2778 2777 2777 2777 2776 2776 2776 2776 2776 2777 2778 2779 2781 2783 2785 2787 2789 2791 2793 2796 2799 2801 2804 2807 2810 2813 2817 2820 2823 2826 2829 2831 2834 2837 2839 2842 2844 2846 2849 2851 2854 2856 2858 2860 2862 2863 2865 2865 2866
2814 2813 2812 2811 2810 2809 2808 2807 2806 2805 2804 2803 2801 2800 2798 2796 2795 2793 2792 2790 2789 2787 2786 2785 2783 2782 2781 2780 2779 2779 2778 2778 2778 2777 2777 2777 2777 2777 2777 2777 2777 2776 2777 2777 2778 2778 2779 2781 2783 2785 2786 2788 2790 2793 2795 2797 2800 2802 2805 2808 2811 2814 2816 2819 2822 2825 2827 2830 2833 2835 2838 2840 2842 2845 2847 2850 2852 2854 2856 2858 2860 2861 2862 2863 2863
2811 2810 2809 2808 2807 2806 2805 2804 2803 2802 2801 2800 2799 2798 2796 2795 2793 2792 2791 2789 2788 2787 2785 2784 2783 2782 2781 2780 2779 2779 2778 2778 2777 2777 2777 2777 2777 2777 2777 2777 2777 2778 2778 2778 2779 2780 2781 2782 2784 2786 2788 2790 2792 2794 2796 2798 2801 2803 2806 2808 2811 2813 2816 2818 2821 2824 2826 2829 2831 2834 2836 2839 2841 2844 2846 2849 2851 2853 2854 2856 2857 2858 2859 2860 2860
2808 2807 2806 2804 2804 2803 2802 2801 2800 2799 2798 2797 2797 2796 2794 2793 2792 2791 2789 2788 2787 2786 2784 2783 2782 2781 2780 2780 2779 2778 2778 2777 2777 2777 2777 2777 2777 2777 2777 2778 2778 2779 2779 2780 2780 2781 2782 2784 2785 2787 2789 2791 2793 2795 2797 2799 2801 2803 2806 2808 2811 2813 2815 2818 2820 2823 2826 2828 2830 2833 2835 2838 2840 2842 2845 2847 2849 2851 2852 2853 2855 2856 2856 2857 2857
2805 2804 2803 2801 2800 2799 2798 2798 2797 2796 2795 2794 2794 2793 2792 2791 2790 2789 2788 2787 2786 2785 2784 2783 2782 2781 2780 2779 2779 2778 2778 2777 2777 2777 2777 2777 2777 2778 2778 2778 2779 2779 2780 2781 2781 2782 2784 2785 2786 2788 2790 2791 2793 2795 2797 2799 2801 2803 2806 2808 2810 2813 2815 2818 2820 2822 2825 2827 2829 2832 2834 2836 2839 2841 2843 2845 2847 2848 2850 2851 2852 2853 2853 2854 2854
2802 2801 2800 2798 2797 2796 2795 2794 2794 2793 2792 2791 2790 2790 2789 2789 2788 2787 2786 2785 2784 2784 2783 2782 2781 2780 2779 2779 2778 2778 2778 2777 2777 2777 2777 2777 2778 2778 2778 2779 2779 2780 2780 2781 2782 2783 2784 2786 2787 2789 2790 2792 2794 2795 2797 2799 2801 2804 2806 2808 2810 2813 2815 2817 2820 2822 2824 2826 2829 2831 2833 2835 2837 2839 2841 2843 2844 2846 2847 2848 2849 2850 2850 2851 2851